South Lake Tahoe, CA

10:56 PM PST on December 14, 2017 (GMT -0800)
Lake Tahoe

Weather History for KTVL - December, 2012

Change the Weather History Date:

Friday, December 7, 2012

  Actual Average Record
Temperature  
Mean Temperature 39 °F 30 °F  
Max Temperature 53 °F 44 °F 56 °F (2010)
Min Temperature 25 °F 17 °F -3 °F (2013)
Degree Days  
Heating Degree Days 26 34  
Month to date heating degree days 165 236  
Since 1 July heating degree days 1923 2329  
Cooling Degree Days 0 0  
Month to date cooling degree days 0 0  
Year to date cooling degree days 30 31  
Moisture  
Dew Point 21 °F    
Average Humidity 53    
Maximum Humidity 85    
Minimum Humidity 21    
Precipitation  
Precipitation 0.00 in - 1.43 in (1952)
Month to date precipitation 3.10  
Year to date precipitation 19.23  
Sea Level Pressure  
Sea Level Pressure 30.14 in    
Wind  
Wind Speed 2 mph (SSW)    
Max Wind Speed 8 mph    
Max Gust Speed 10 mph    
Visibility 10 miles    
Events      
T = Trace of Precipitation, MM = Missing Value Source: NWS Daily Summary

Daily Weather History Graph

Daily Weather History Graph

Search for Another Location

Airport or City:

Trip Planner

Search our weather history database for the weather conditions in past years. The results will help you decide how hot, cold, wet, or windy it might be!

Date:

Astronomy

Dec. 07, 2012 Rise Set
Actual Time 7:05 AM PST 4:37 PM PST
Civil Twilight 6:35 AM PST 5:07 PM PST
Nautical Twilight 6:02 AM PST 5:40 PM PST
Astronomical Twilight 5:30 AM PST 6:13 PM PST
Moon 12:33 AM PST (12/7) 12:34 PM PST (12/7)
Length of Visible Light 10h 31m
Length of Day
9h 32m
Last Quarter, 37% of the Moon is Illuminated
Dec 7
Last Quarter
Dec 13
New
Dec 19
First Quarter
Dec 28
Full
Jan 4
Last Quarter

Hourly Weather History & Observations

Time (PST) Temp. Windchill Dew Point Humidity Pressure Visibility Wind Dir Wind Speed Gust Speed Precip Events Conditions
12:53 AM 28.9 °F 25.2 °F 25.0 °F 85% 30.12 in 10.0 mi SSW 3.5 mph - N/A   Clear
1:53 AM 27.0 °F 23.0 °F 23.0 °F 85% 30.13 in 9.0 mi South 3.5 mph - N/A   Clear
2:53 AM 28.0 °F - 23.0 °F 81% 30.14 in 10.0 mi Calm Calm - N/A   Clear
3:53 AM 28.0 °F - 23.0 °F 81% 30.16 in 10.0 mi Calm Calm - N/A   Clear
4:53 AM 27.0 °F - 21.9 °F 81% 30.17 in 10.0 mi Calm Calm - N/A   Clear
5:53 AM 27.0 °F 23.0 °F 21.9 °F 81% 30.19 in 10.0 mi Variable 3.5 mph - N/A   Clear
6:53 AM 26.1 °F - 21.0 °F 81% 30.20 in 10.0 mi Calm Calm - N/A   Clear
7:53 AM 26.1 °F 20.5 °F 21.0 °F 81% 30.21 in 10.0 mi SSW 4.6 mph - N/A   Clear
8:53 AM 30.9 °F 27.5 °F 24.1 °F 76% 30.21 in 10.0 mi South 3.5 mph - N/A   Clear
9:53 AM 37.0 °F - 28.9 °F 73% 30.19 in 10.0 mi Calm Calm - N/A   Clear
10:53 AM 44.1 °F - 28.0 °F 53% 30.16 in 10.0 mi Calm Calm - N/A   Clear
11:53 AM 50.0 °F - 19.9 °F 31% 30.11 in 10.0 mi Calm Calm - N/A   Clear
12:53 PM 52.0 °F - 16.0 °F 24% 30.09 in 10.0 mi Calm Calm - N/A   Clear
1:53 PM 52.0 °F - 12.0 °F 20% 30.07 in 10.0 mi Calm Calm - N/A   Clear
2:53 PM 52.0 °F - 12.0 °F 20% 30.08 in 10.0 mi Calm Calm - N/A   Clear
3:53 PM 42.1 °F - 23.0 °F 47% 30.12 in 10.0 mi Calm Calm - N/A   Clear
5:53 PM 34.0 °F - 19.9 °F 56% 30.15 in 10.0 mi Calm Calm - N/A   Clear
6:53 PM 32.0 °F - 19.0 °F 59% 30.17 in 10.0 mi Calm Calm - N/A   Clear
7:53 PM 28.9 °F 25.2 °F 19.9 °F 69% 30.17 in 10.0 mi SSW 3.5 mph - N/A   Clear
8:53 PM 30.0 °F 25.2 °F 19.0 °F 64% 30.15 in 10.0 mi SSW 4.6 mph - N/A   Clear
9:53 PM 28.0 °F - 19.0 °F 69% 30.14 in 10.0 mi Calm Calm - N/A   Clear
10:53 PM 28.0 °F 22.8 °F 18.0 °F 66% 30.11 in 10.0 mi South 4.6 mph - N/A   Clear
11:53 PM 28.0 °F 22.8 °F 17.1 °F 63% 30.09 in 10.0 mi South 4.6 mph - N/A   Clear